Location: Easthampton
(42.2676°N, 72.6690°W)
Time: 00:13:16
(UTC+00:00)

AO-91 - Pass Details

Date: 10 April 2023
Orbit: 446 x 775 km, 97.6° (Epoch: 28 May)

Event Time Altitude Azimuth Distance (km) Brightness Sun altitude
Rises 02:44:46 0° 16° (NNE) 3,271 ? -32.1°
Reaches altitude 10° 02:47:11 10° 21° (NNE) 2,337 ? -32.4°
Enters shadow 02:49:01 22° 28° (NNE) 1,660 ? -32.6°
